Location: Little Baddow
(51.7333°N, 0.5667°E)
Time: 11:09:42
(UTC+00:00)

Cosmos 2322 Rocket - Pass Details

Date: 08 November 2025
Orbit: 830 x 851 km, 71.0° (Epoch: 10 December)

Event Time Altitude Azimuth Distance (km) Brightness Sun altitude
Exits shadow 03:59:30 49° 357° (N) 1,080 2.7 -28.7°
Drops below altitude 10° 04:03:53 10° 26° (NNE) 2,484 5.0 -28.0°
Sets 04:06:24 0° 30° (NNE) 3,426 5.9 -27.6°
